[ ตารางข้อมูล ] [ Min-Max ] [ วันนี้2 ] [ วันนี้4 ] [ เทียบ-A 3วัน ] [ เทียบ-B 4วัน ]   

วันนี้2   [ ◀ ช่วงเก่ากว่า ] [ ช่วงที่ 53 ] [ ช่วงใหม่กว่า ▶ ] [ ล่าสุด ]    [ 3 ชั่วโมง ] [ 6 ชั่วโมง ] [ 12 ชั่วโมง ] [ 24 ชั่วโมง ]   วันนี้2

อุณภูมิในตู้ Knockdown4529  ราย 6 ชั่วโมง  ที่วัดได้ ในช่วงวันเวลา 20/08/2026 (03:29) ถึง 20/08/2026 (09:29) 
ความชื้นในตู้ Knockdown4529  ราย 6 ชั่วโมง  ที่วัดได้ ในช่วงวันเวลา 20/08/2026 (03:29) ถึง 20/08/2026 (09:29) 
การใช้ไฟฟ้าในตู้ Knockdown4529  ราย 6 ชั่วโมง  ที่วัดได้ ในช่วงวันเวลา 20/08/2026 (03:29) ถึง 20/08/2026 (09:29) 

  DS18B20SHTC3PZEM-004TWiFi 
IDDate d/m/Y & Timedata1
สูง
data2
ต่ำ
data3
นอก
temp
pcb
hum
pcb
VoltAmpWattrssiTime
 14309  20/08/2026 09:26:38  29.9  29.4  30.4  31.0  66.0  232.8  0.04  4.6  -77  09:26 
 14308  20/08/2026 09:21:54  29.8  29.4  30.5  31.0  66.0  232.9  0.04  4.6  -76  09:21 
 14307  20/08/2026 09:17:10  29.8  29.3  30.4  30.8  66.1  233.9  0.04  4.6  -77  09:17 
 14306  20/08/2026 09:12:27  29.7  29.3  30.1  30.7  66.0  233.1  0.04  4.6  -75  09:12 
 14305  20/08/2026 09:07:42  29.6  29.3  29.9  30.7  66.2  233.0  0.04  4.6  -77  09:07 
 14304  20/08/2026 09:02:59  29.6  29.2  29.9  30.7  66.3  233.1  0.04  4.6  -77  09:02 
 14303  20/08/2026 08:58:15  29.6  29.2  29.6  30.7  66.5  232.4  0.04  4.6  -76  08:58 
 14302  20/08/2026 08:53:31  29.4  29.2  29.7  30.5  66.8  233.4  0.04  4.6  -77  08:53 
 14301  20/08/2026 08:48:48  29.4  29.2  29.7  30.2  66.8  233.9  0.04  4.6  -77  08:48 
 14300  20/08/2026 08:44:03  29.3  29.2  29.4  30.2  67.1  234.8  0.04  4.6  -78  08:44 
 14299  20/08/2026 08:39:20  29.3  29.2  28.9  30.1  67.1  234.2  0.04  4.6  -77  08:39 
 14298  20/08/2026 08:34:37  29.2  29.1  28.7  30.2  67.4  234.1  0.04  4.6  -77  08:34 
 14297  20/08/2026 08:29:53  29.2  29.1  28.7  30.2  67.3  234.0  0.04  4.6  -77  08:29 
 14296  20/08/2026 08:25:10  29.2  29.1  28.5  30.1  67.5  233.7  0.04  4.6  -77  08:25 
 14295  20/08/2026 08:20:27  29.1  29.1  28.5  30.2  67.6  234.2  0.04  4.6  -75  08:20 
 14294  20/08/2026 08:15:44  29.1  29.1  28.4  30.0  67.6  233.2  0.04  4.6  -77  08:15 
 14293  20/08/2026 08:11:01  29.1  29.1  28.2  30.0  67.7  234.7  0.04  4.6  -78  08:11 
 14292  20/08/2026 08:06:17  29.1  29.1  27.9  30.1  67.8  234.4  0.04  4.6  -77  08:06 
 14291  20/08/2026 08:01:34  29.1  29.1  27.7  30.0  67.8  234.1  0.04  4.6  -77  08:01 
 14290  20/08/2026 07:56:50  29.1  29.1  27.6  30.0  68.0  234.6  0.04  4.6  -76  07:56 
 14289  20/08/2026 07:52:07  29.1  29.1  27.5  29.9  67.9  233.7  0.04  4.6  -75  07:52 
 14288  20/08/2026 07:47:24  29.0  29.1  27.3  30.0  68.1  234.8  0.04  4.6  -77  07:47 
 14287  20/08/2026 07:42:40  29.0  29.1  27.1  29.9  68.0  235.2  0.04  4.6  -77  07:42 
 14286  20/08/2026 07:37:57  29.0  29.1  26.9  30.0  68.0  234.7  0.04  4.6  -76  07:37 

Data every 5 minute.


ใช้เวลาประมวลผล 0.04052 วินาที